Flag for Germany Weather past 2 weeks in Neustrelitz, Mecklenburg-Western Pomerania, Germany

Now
65 °F

Overcast.


Feels Like: 65 °F
Forecast: 41 / 63 °F
Wind: 5 mph from Southwest

Location: Neuruppin

Current Time: May 28, 2015 at 4:47:16 PM

Latest Report: May 28, 2015 at 4:00 PM


Visibility: 6 mi

Pressure: 29.85 "Hg

Humidity: 45%

Dew point: 44 °F

Location of NeustrelitzLocation

Historic Weather in Neustrelitz — Graph

°F

Neustrelitz temperature yesterday

Maximum temperature yesterday: 56 °F (at 6:00 PM)
Minimum temperature yesterday: 43 °F (at 4:00 AM)
Average temperature yesterday: 50 °F

Past Weeks' High & Low Weather Summary

 TemperatureHumidityPressure
High70 °F (May 25, 2:00 PM)99% (May 15, 5:00 AM)30.32 "Hg (May 15, 5:00 AM)
Low38 °F (May 16, 6:00 AM)34% (May 22, 4:00 PM)29.58 "Hg (May 19, 3:00 AM)
Average53 °F70%30.02 "Hg
* Reported May 13 3:00 PM — May 28 3:00 PM, Neustrelitz, Weather by CustomWeather, © 2015

Note: Actual official high and low records may vary slightly from our data, if they occured in-between our weather recording intervals... More about our weather records

Advertising

Neustrelitz weather history for previous 24 hours

 ConditionsComfort  
Time TempWeatherWind HumidityBarometerVisibility
3:00 PM
Thu, May 28
65 °FOvercast.6 mph46%29.86 "Hg6 mi
2:00 PM66 °FPartly sunny.6 mph46%29.88 "Hg6 mi
1:00 PM63 °FOvercast.8 mph50%29.90 "Hg6 mi
12:00 PM61 °FOvercast.7 mph46%29.92 "Hg6 mi
10:00 AM57 °FOvercast.6 mph61%29.96 "Hg6 mi
9:00 AM54 °FOvercast.5 mph70%29.98 "Hg6 mi
8:00 AM51 °FScattered clouds.3 mph77%29.99 "Hg6 mi
7:00 AM49 °FPartly sunny.5 mph85%30.00 "Hg6 mi
6:00 AM47 °FOvercast.3 mph88%30.01 "Hg6 mi
4:00 AM41 °FOvercast.2 mph95%30.04 "Hg6 mi
3:00 AM41 °FClear.1 mph92%30.06 "Hg6 mi
2:00 AM41 °FClear.1 mph91%30.07 "Hg6 mi
1:00 AM42 °FClear.1 mph90%30.09 "Hg6 mi
12:00 AM44 °FClear.1 mph86%30.10 "Hg6 mi
10:00 PM
Wed, May 27
48 °FClear.1 mph79%30.11 "Hg6 mi
9:00 PM53 °FScattered clouds.1 mph65%30.11 "Hg7 mi
8:00 PM55 °FOvercast.1 mph60%30.11 "Hg6 mi
7:00 PM55 °FOvercast.2 mph57%30.12 "Hg6 mi
6:00 PM56 °FOvercast.3 mph55%30.13 "Hg6 mi
4:00 PM55 °FOvercast.5 mph54%30.12 "Hg6 mi
Weather by CustomWeather, © 2015

See weather overviewHow to use our weather pages